Zurück zum Katalog

VICTUS HAZE PUMA

AktivMilitärSSO
NORAD 69646·PAYLOAD·🇺🇸 United States

Gestartet Jun 19, 2026 von Rocket Lab Launch Complex 1

Loading…

Nächste Überflüge (nächste 24 Stunden)

TLE

AktuellSource: Space-Track

Epoche: Sep 14, 2026, 14:47 UTC

1 69646U 26142A   26257.61666224  .00003129  00000-0  14224-3 0  9992
2 69646  97.4521 154.1925 0015142 144.9237 215.3000 15.21397784 13261

Verfolge VICTUS HAZE PUMA in Echtzeit mit AllMySat

Download on the App Store